Change the Weather History Date:

Sunday, June 8, 2014

  Actual Average (KSLO) Record (KSLO)
Temperature  
Mean Temperature 72 °F -  
Max Temperature 83 °F 84 °F 97 °F (1963)
Min Temperature 64 °F 61 °F 50 °F (1983)
Cooling Degree Days 8    
Growing Degree Days 22 (Base 50)    
Moisture  
Dew Point 60 °F    
Average Humidity 68    
Maximum Humidity 89    
Minimum Humidity 46    
Precipitation  
Precipitation 0.01 in - - ()
Sea Level Pressure  
Sea Level Pressure 29.93 in    
Wind  
Wind Speed 11 mph (NNW)    
Max Wind Speed 21 mph    
Max Gust Speed 30 mph    
Visibility 10 miles    
Events      
Averages and records for this station are not official NWS values.
T = Trace of Precipitation, MM = Missing Value Source: NWS Daily Summary

Daily Weather History Graph

Daily Weather History Graph

Search for Another Location

Airport or City:

Trip Planner

Search our weather history database for the weather conditions in past years. The results will help you decide how hot, cold, wet, or windy it might be!

Date:

Astronomy

Jun. 08, 2014 Rise Set
Actual Time 5:32 AM CDT 8:19 PM CDT
Civil Twilight 5:00 AM CDT 8:50 PM CDT
Nautical Twilight 4:21 AM CDT 9:30 PM CDT
Astronomical Twilight 3:36 AM CDT 10:15 PM CDT
Moon 3:40 PM CDT (6/8) 2:21 AM CDT (6/8)
Length of Visible Light 15h 50m
Length of Day
14h 46m
Waxing Gibbous, 77% of the Moon is Illuminated
Jun 8
Waxing Gibbous
Jun 12
Full
Jun 19
Last Quarter
Jun 27
New
Jul 5
First Quarter

Hourly Weather History & Observations

Time (CDT) Temp. Heat Index Dew Point Humidity Pressure Visibility Wind Dir Wind Speed Gust Speed Precip Events Conditions
12:15 AM 70.3 °F - 63.5 °F 79% 29.75 in 10.0 mi West 17.3 mph 21.9 mph N/A   Overcast
12:35 AM 69.8 °F - 62.6 °F 78% 29.75 in 10.0 mi West 17.3 mph 24.2 mph N/A   Overcast
12:55 AM 69.1 °F - 61.3 °F 76% 29.77 in 10.0 mi West 12.7 mph 29.9 mph N/A   Overcast
1:15 AM 68.2 °F - 61.7 °F 80% 29.77 in 10.0 mi West 18.4 mph 25.3 mph N/A   Overcast
1:35 AM 67.5 °F - 61.7 °F 82% 29.78 in 10.0 mi WNW 15.0 mph 27.6 mph N/A   Overcast
1:55 AM 65.8 °F - 62.1 °F 88% 29.78 in 7.0 mi WNW 20.7 mph 28.8 mph N/A   Overcast
2:15 AM 65.7 °F - 61.3 °F 86% 29.80 in 10.0 mi WNW 16.1 mph 25.3 mph N/A   Overcast
2:35 AM 65.3 °F - 60.6 °F 85% 29.80 in 10.0 mi NW 17.3 mph 23.0 mph N/A   Overcast
2:55 AM 65.3 °F - 59.5 °F 82% 29.81 in 10.0 mi NW 16.1 mph 24.2 mph N/A   Overcast
3:15 AM 65.3 °F - 59.0 °F 80% 29.81 in 10.0 mi NW 16.1 mph 24.2 mph N/A   Overcast
3:35 AM 65.1 °F - 59.0 °F 81% 29.82 in 10.0 mi NNW 12.7 mph 23.0 mph N/A   Overcast
3:55 AM 65.3 °F - 58.5 °F 78% 29.83 in 10.0 mi NW 12.7 mph 20.7 mph N/A   Overcast
4:15 AM 65.3 °F - 58.3 °F 78% 29.85 in 10.0 mi NW 17.3 mph 24.2 mph N/A   Overcast
4:35 AM 64.9 °F - 58.3 °F 79% 29.86 in 10.0 mi NW 11.5 mph 20.7 mph N/A   Overcast
4:55 AM 64.9 °F - 58.3 °F 79% 29.89 in 10.0 mi WNW 11.5 mph - N/A   Overcast
5:15 AM 65.3 °F - 57.9 °F 77% 29.88 in 10.0 mi NNW 10.4 mph - N/A   Overcast
5:35 AM 64.4 °F - 59.0 °F 83% 29.90 in 10.0 mi WNW 11.5 mph 16.1 mph N/A   Overcast
5:55 AM 64.8 °F - 58.1 °F 79% 29.91 in 10.0 mi NW 11.5 mph 17.3 mph N/A   Overcast
6:15 AM 64.6 °F - 58.1 °F 79% 29.93 in 10.0 mi NW 10.4 mph - N/A   Overcast
6:35 AM 64.4 °F - 58.1 °F 80% 29.93 in 10.0 mi NW 11.5 mph 16.1 mph N/A   Overcast
6:55 AM 64.4 °F - 58.1 °F 80% 29.92 in 10.0 mi NW 11.5 mph 17.3 mph N/A   Overcast
7:15 AM 64.6 °F - 58.1 °F 79% 29.92 in 10.0 mi NW 11.5 mph 18.4 mph N/A   Overcast
7:35 AM 65.3 °F - 58.1 °F 77% 29.94 in 10.0 mi NNW 10.4 mph 16.1 mph N/A   Overcast
7:55 AM 66.2 °F - 58.3 °F 76% 29.95 in 10.0 mi NW 12.7 mph 17.3 mph N/A   Overcast
8:15 AM 66.4 °F - 58.5 °F 76% 29.96 in 10.0 mi NNW 11.5 mph - N/A   Overcast
8:35 AM 68.2 °F - 59.2 °F 73% 29.97 in 10.0 mi NNW 10.4 mph - N/A   Overcast
8:55 AM 70.2 °F - 58.8 °F 67% 29.97 in 10.0 mi North 10.4 mph 19.6 mph N/A   Scattered Clouds
9:15 AM 70.3 °F - 59.0 °F 67% 29.97 in 10.0 mi North 15.0 mph 23.0 mph N/A   Scattered Clouds
9:35 AM 70.5 °F - 58.6 °F 66% 29.98 in 10.0 mi North 10.4 mph 17.3 mph N/A   Mostly Cloudy
9:55 AM 72.1 °F - 58.3 °F 62% 29.98 in 10.0 mi North 9.2 mph - N/A   Scattered Clouds
10:15 AM 73.2 °F - 58.1 °F 59% 29.98 in 10.0 mi NNW 8.1 mph - N/A   Scattered Clouds
10:35 AM 74.5 °F - 57.4 °F 55% 29.99 in 10.0 mi North 9.2 mph - N/A   Scattered Clouds
10:55 AM 79.5 °F - 60.3 °F 52% 29.99 in 10.0 mi North 8.1 mph - N/A   Scattered Clouds
11:15 AM 76.8 °F - 59.4 °F 55% 30.00 in 10.0 mi North 5.8 mph - N/A   Scattered Clouds
11:35 AM 77.9 °F - 59.9 °F 54% 30.01 in 10.0 mi NNW 8.1 mph - N/A   Scattered Clouds
12:15 PM 80.2 °F 80.7 °F 58.1 °F 47% 30.01 in 10.0 mi Calm Calm - N/A   Scattered Clouds
12:35 PM 80.6 °F 81.1 °F 59.0 °F 48% 30.01 in 10.0 mi North 6.9 mph - N/A   Scattered Clouds
12:55 PM 78.8 °F - 59.0 °F 51% 30.01 in 10.0 mi NNW 9.2 mph - N/A   Scattered Clouds
1:15 PM 80.4 °F 81.1 °F 59.9 °F 49% 30.01 in 10.0 mi NNW 6.9 mph - N/A   Scattered Clouds
1:35 PM 80.4 °F 81.1 °F 59.5 °F 49% 30.00 in 10.0 mi WNW 8.1 mph - N/A   Scattered Clouds
1:55 PM 80.4 °F 81.1 °F 59.5 °F 49% 30.00 in 10.0 mi NNW 6.9 mph - N/A   Scattered Clouds
2:15 PM 81.7 °F 81.9 °F 59.2 °F 46% 29.99 in 10.0 mi NW 9.2 mph - N/A   Scattered Clouds
2:35 PM 81.3 °F 81.6 °F 59.0 °F 46% 29.99 in 10.0 mi NW 6.9 mph - N/A   Scattered Clouds
2:55 PM 80.6 °F 81.1 °F 59.0 °F 48% 29.98 in 10.0 mi WNW 4.6 mph - N/A   Scattered Clouds
3:15 PM 80.8 °F 81.3 °F 59.2 °F 48% 29.98 in 10.0 mi NNW 6.9 mph - N/A   Scattered Clouds
3:35 PM 79.2 °F - 58.8 °F 50% 29.98 in 10.0 mi NNW 5.8 mph - N/A   Scattered Clouds
3:55 PM 78.8 °F - 58.8 °F 50% 29.97 in 10.0 mi NW 4.6 mph - N/A   Scattered Clouds
4:15 PM 78.8 °F - 59.5 °F 52% 29.97 in 10.0 mi NW 4.6 mph - N/A   Scattered Clouds
4:35 PM 79.0 °F - 59.0 °F 50% 29.97 in 10.0 mi North 6.9 mph - N/A   Clear
4:55 PM 80.1 °F 80.7 °F 58.5 °F 48% 29.97 in 10.0 mi North 4.6 mph - N/A   Clear
5:15 PM 78.8 °F - 59.4 °F 51% 29.97 in 10.0 mi NNE 4.6 mph - N/A   Clear
5:35 PM 77.7 °F - 58.6 °F 52% 29.97 in 10.0 mi North 3.5 mph - N/A   Clear
5:55 PM 77.2 °F - 59.2 °F 54% 29.96 in 10.0 mi NNE 3.5 mph - N/A   Clear
6:15 PM 75.9 °F - 59.9 °F 57% 29.96 in 10.0 mi North 4.6 mph - N/A   Clear
6:35 PM 74.7 °F - 60.3 °F 61% 29.96 in 10.0 mi North 3.5 mph - N/A   Clear
6:55 PM 73.8 °F - 60.6 °F 63% 29.97 in 10.0 mi NNE 3.5 mph - N/A   Clear
7:15 PM 73.4 °F - 60.4 °F 64% 29.96 in 10.0 mi NNE 4.6 mph - N/A   Clear
7:35 PM 72.3 °F - 59.7 °F 64% 29.96 in 10.0 mi NNE 5.8 mph - N/A   Clear
7:55 PM 71.6 °F - 58.8 °F 64% 29.95 in 10.0 mi NNE 3.5 mph - N/A   Clear
8:15 PM 71.1 °F - 59.0 °F 66% 29.95 in 10.0 mi Calm Calm - N/A   Clear
8:35 PM 70.3 °F - 59.0 °F 67% 29.95 in 10.0 mi NNE 3.5 mph - N/A   Clear
8:55 PM 69.8 °F - 59.7 °F 70% 29.96 in 10.0 mi NNE 3.5 mph - N/A   Clear
9:15 PM 68.9 °F - 59.9 °F 73% 29.97 in 10.0 mi Calm Calm - N/A   Clear
9:35 PM 68.9 °F - 59.7 °F 72% 29.98 in 10.0 mi NNW 3.5 mph - N/A   Clear
9:55 PM 68.0 °F - 60.8 °F 78% 29.98 in 10.0 mi Calm Calm - N/A   Clear
10:15 PM 68.0 °F - 61.5 °F 80% 29.98 in 10.0 mi Calm Calm - N/A   Clear
10:35 PM 67.1 °F - 62.6 °F 85% 29.98 in 10.0 mi Calm Calm - N/A   Clear
10:55 PM 66.7 °F - 62.6 °F 86% 29.99 in 10.0 mi Calm Calm - N/A   Clear
11:15 PM 66.6 °F - 63.0 °F 88% 29.99 in 10.0 mi Calm Calm - N/A   Clear
11:35 PM 66.4 °F - 62.6 °F 88% 29.99 in 10.0 mi Calm Calm - N/A   Clear
11:55 PM 66.2 °F - 62.8 °F 89% 29.98 in 10.0 mi Calm Calm - N/A   Clear